QPF
0.00 0.00 0.00 0.02 0.01 0.01 0.04 0.10 0.11 0.09 0.02 0.01 0.00 0.00 0.00 0.00 0.00 0.00 0.00 0.00 0.00 0.00 0.00 0.01 0.01 0.00 0.00 0.00 0.00 0.00 0.00 0.00 0.00 0.00 0.00 0.00 0.00 0.00 0.01 0.01 0.00 0.00 0.00 0.00 0.00 0.00 0.00 0.00 0.00
0.00 0.00 0.01 0.04 0.02 0.00 0.01 0.18 0.13 0.08 0.06 0.01 0.01 0.02 0.00 0.00 0.00 0.00 0.00 0.00 0.00 0.00 0.00 0.00 0.00 0.00 0.00 0.00 0.00 0.00 0.00 0.00 0.00 0.00 0.00 0.01 0.00 0.02 0.07 0.05 0.04 0.00 0.00 0.00 0.00 0.00 0.00 0.00 0.00
0.00 0.00 0.04 0.06 0.02 0.03 0.01 0.02 0.08 0.01 0.02 0.00 0.05 0.09 0.00 0.00 0.00 0.00 0.00 0.00 0.00 0.00 0.00 0.00 0.00 0.00 0.00 0.00 0.00 0.00 0.00 0.00 0.00 0.00 0.00 0.00 0.00 0.00 0.01 0.01 0.00 0.00 0.00 0.00 0.00 0.00 0.00 0.02 0.03
0.00 0.03 0.09 0.03 0.03 0.04 0.02 0.02 0.05 0.09 0.09 0.07 0.06 0.02 0.00 0.00 0.00 0.00 0.00 0.00 0.00 0.00 0.00 0.00 0.00 0.00 0.00 0.00 0.00 0.00 0.00 0.00 0.00 0.01 0.00 0.00 0.00 0.00 0.00 0.00 0.00 0.00 0.00 0.00 0.00 0.00 0.00 0.04 0.05
0.01 0.06 0.02 0.00 0.02 0.02 0.05 0.05 0.04 0.09 0.13 0.06 0.01 0.00 0.00 0.00 0.00 0.00 0.00 0.00 0.00 0.00 0.00 0.00 0.00 0.00 0.00 0.00 0.00 0.00 0.00 0.00 0.00 0.00 0.01 0.01 0.00 0.00 0.00 0.00 0.00 0.00 0.00 0.00 0.00 0.01 0.02 0.01 0.03
0.03 0.06 0.03 0.02 0.02 0.02 0.04 0.05 0.11 0.07 0.11 0.04 0.00 0.00 0.00 0.00 0.00 0.00 0.00 0.00 0.00 0.00 0.00 0.00 0.00 0.00 0.00 0.00 0.00 0.00 0.00 0.00 0.00 0.00 0.00 0.02 0.00 0.00 0.00 0.00 0.00 0.00 0.00 0.00 0.00 0.02 0.05 0.04 0.03
0.00 0.01 0.00 0.00 0.01 0.01 0.01 0.02 0.08 0.10 0.05 0.01 0.00 0.00 0.00 0.00 0.00 0.00 0.00 0.00 0.00 0.00 0.00 0.00 0.00 0.00 0.00 0.00 0.00 0.00 0.00 0.00 0.00 0.00 0.00 0.00 0.00 0.00 0.00 0.00 0.00 0.00 0.00 0.00 0.00 0.00 0.03 0.02 0.03
0.02 0.01 0.00 0.00 0.00 0.01 0.00 0.01 0.01 0.09 0.04 0.00 0.00 0.00 0.00 0.00 0.00 0.00 0.00 0.00 0.00 0.00 0.00 0.00 0.00 0.00 0.00 0.00 0.00 0.00 0.00 0.00 0.00 0.00 0.00 0.00 0.00 0.00 0.00 0.00 0.00 0.00 0.00 0.00 0.00 0.00 0.01 0.01 0.02
0.00 0.02 0.01 0.00 0.00 0.00 0.03 0.05 0.03 0.06 0.01 0.00 0.00 0.00 0.00 0.00 0.00 0.00 0.01 0.00 0.00 0.00 0.00 0.00 0.00 0.00 0.00 0.00 0.00 0.00 0.00 0.00 0.00 0.00 0.00 0.00 0.00 0.00 0.00 0.00 0.00 0.00 0.00 0.00 0.00 0.00 0.00 0.00 0.00
0.00 0.00 0.02 0.00 0.00 0.00 0.02 0.00 0.01 0.02 0.00 0.00 0.00 0.00 0.00 0.00 0.00 0.00 0.00 0.00 0.00 0.00 0.00 0.00 0.00 0.00 0.00 0.00 0.00 0.00 0.00 0.00 0.00 0.00 0.00 0.00 0.00 0.00 0.00 0.00 0.00 0.00 0.01 0.03 0.02 0.01 0.00 0.00 0.00
0.00 0.00 0.00 0.00 0.00 0.00 0.00 0.02 0.01 0.00 0.00 0.00 0.00 0.00 0.00 0.00 0.00 0.00 0.00 0.00 0.00 0.00 0.00 0.00 0.00 0.00 0.00 0.00 0.00 0.00 0.00 0.00 0.00 0.00 0.00 0.00 0.00 0.00 0.00 0.00 0.00 0.00 0.00 0.01 0.00 0.00 0.00 0.00 0.00
0.00 0.00 0.00 0.00 0.00 0.00 0.00 0.01 0.00 0.00 0.00 0.00 0.00 0.00 0.00 0.00 0.00 0.00 0.00 0.00 0.00 0.00 0.00 0.00 0.00 0.00 0.00 0.00 0.00 0.00 0.00 0.00 0.00 0.00 0.00 0.00 0.00 0.05 0.00 0.00 0.02 0.00 0.00 0.00 0.00 0.00 0.00 0.01 0.03
0.00 0.00 0.00 0.00 0.00 0.00 0.00 0.00 0.00 0.02 0.00 0.00 0.00 0.00 0.00 0.00 0.00 0.00 0.00 0.00 0.00 0.00 0.00 0.00 0.00 0.00 0.00 0.00 0.00 0.00 0.00 0.00 0.00 0.00 0.01 0.01 0.01 0.00 0.00 0.00 0.00 0.00 0.00 0.00 0.00 0.01 0.00 0.00 0.00
0.00 0.00 0.00 0.00 0.00 0.00 0.00 0.00 0.00 0.01 0.00 0.00 0.00 0.00 0.00 0.00 0.00 0.00 0.00 0.00 0.00 0.00 0.00 0.00 0.00 0.00 0.00 0.00 0.00 0.00 0.00 0.00 0.00 0.00 0.00 0.00 0.00 0.00 0.00 0.00 0.00 0.00 0.00 0.00 0.00 0.04 0.03 0.00 0.00
0.00 0.00 0.00 0.00 0.00 0.00 0.00 0.00 0.01 0.00 0.00 0.00 0.00 0.00 0.00 0.00 0.00 0.00 0.00 0.00 0.00 0.00 0.00 0.00 0.00 0.00 0.00 0.00 0.00 0.00 0.00 0.00 0.00 0.00 0.00 0.00 0.00 0.00 0.00 0.00 0.00 0.00 0.00 0.00 0.00 0.04 0.05 0.02 0.00
0.00 0.00 0.00 0.00 0.00 0.00 0.00 0.00 0.04 0.06 0.01 0.00 0.00 0.00 0.00 0.00 0.00 0.00 0.00 0.00 0.00 0.00 0.00 0.00 0.00 0.00 0.00 0.00 0.00 0.00 0.00 0.00 0.00 0.00 0.00 0.00 0.00 0.00 0.00 0.00 0.00 0.00 0.02 0.00 0.01 0.03 0.01 0.00 0.00
0.00 0.00 0.00 0.00 0.00 0.00 0.00 0.00 0.00 0.03 0.01 0.00 0.00 0.00 0.00 0.00 0.00 0.00 0.00 0.00 0.00 0.00 0.00 0.00 0.00 0.00 0.00 0.00 0.00 0.00 0.00 0.00 0.00 0.00 0.00 0.00 0.00 0.00 0.00 0.00 0.00 0.00 0.00 0.01 0.02 0.00 0.00 0.00 0.00
0.00 0.00 0.00 0.00 0.00 0.00 0.00 0.00 0.00 0.00 0.00 0.00 0.00 0.00 0.00 0.00 0.00 0.00 0.00 0.00 0.00 0.00 0.00 0.00 0.00 0.00 0.00 0.00 0.00 0.00 0.00 0.00 0.00 0.00 0.00 0.00 0.00 0.00 0.00 0.00 0.00 0.00 0.00 0.00 0.01 0.00 0.00 0.00 0.00
0.00 0.00 0.00 0.00 0.00 0.00 0.00 0.00 0.00 0.00 0.00 0.01 0.00 0.00 0.00 0.00 0.00 0.00 0.00 0.00 0.00 0.00 0.00 0.00 0.00 0.00 0.00 0.00 0.00 0.00 0.00 0.00 0.00 0.00 0.00 0.00 0.00 0.00 0.00 0.00 0.00 0.00 0.00 0.01 0.02 0.00 0.00 0.00 0.00
0.00 0.00 0.00 0.00 0.00 0.00 0.00 0.00 0.00 0.00 0.00 0.00 0.00 0.00 0.00 0.00 0.00 0.00 0.00 0.00 0.00 0.00 0.00 0.00 0.00 0.00 0.00 0.00 0.00 0.00 0.00 0.00 0.00 0.00 0.00 0.00 0.00 0.00 0.00 0.00 0.00 0.05 0.00 0.01 0.03 0.00 0.00 0.00 0.00
0.00 0.00 0.00 0.00 0.00 0.00 0.01 0.01 0.01 0.01 0.00 0.00 0.00 0.00 0.00 0.00 0.00 0.00 0.00 0.00 0.00 0.00 0.00 0.00 0.00 0.00 0.00 0.00 0.00 0.00 0.00 0.00 0.00 0.00 0.00 0.00 0.00 0.00 0.00 0.00 0.00 0.02 0.00 0.01 0.04 0.00 0.00 0.00 0.00
0.00 0.00 0.00 0.00 0.00 0.00 0.00 0.00 0.00 0.00 0.00 0.00 0.00 0.00 0.00 0.00 0.00 0.00 0.00 0.00 0.00 0.00 0.00 0.00 0.00 0.00 0.00 0.00 0.00 0.00 0.00 0.00 0.00 0.00 0.00 0.00 0.00 0.00 0.00 0.00 0.00 0.00 0.00 0.00 0.02 0.00 0.00 0.00 0.00
0.00 0.00 0.00 0.00 0.00 0.00 0.00 0.00 0.00 0.00 0.00 0.00 0.00 0.00 0.00 0.00 0.00 0.00 0.00 0.00 0.00 0.00 0.00 0.00 0.00 0.00 0.00 0.00 0.00 0.00 0.00 0.00 0.00 0.00 0.00 0.00 0.00 0.00 0.00 0.00 0.00 0.00 0.00 0.00 0.00 0.00 0.00 0.00 0.00
0.00 0.00 0.00 0.00 0.00 0.00 0.00 0.00 0.00 0.00 0.00 0.00 0.00 0.00 0.00 0.00 0.00 0.00 0.00 0.00 0.00 0.00 0.00 0.00 0.00 0.00 0.00 0.00 0.00 0.00 0.00 0.00 0.00 0.00 0.00 0.00 0.00 0.00 0.00 0.00 0.00 0.00 0.00 0.00 0.00 0.00 0.00 0.00 0.00
0.00 0.00 0.00 0.00 0.00 0.00 0.00 0.00 0.00 0.00 0.00 0.00 0.00 0.00 0.00 0.00 0.00 0.00 0.00 0.00 0.00 0.00 0.00 0.00 0.00 0.00 0.00 0.00 0.00 0.00 0.00 0.00 0.00 0.00 0.00 0.00 0.00 0.00 0.00 0.00 0.00 0.00 0.00 0.00 0.00 0.00 0.00 0.00 0.00
0.00 0.00 0.00 0.00 0.00 0.00 0.00 0.00 0.00 0.00 0.00 0.00 0.00 0.00 0.00 0.00 0.00 0.00 0.00 0.00 0.00 0.00 0.00 0.00 0.00 0.00 0.00 0.00 0.00 0.00 0.00 0.00 0.00 0.00 0.00 0.00 0.00 0.00 0.00 0.00 0.00 0.00 0.00 0.00 0.00 0.00 0.00 0.00 0.00
0.00 0.00 0.00 0.00 0.00 0.00 0.00 0.00 0.00 0.00 0.00 0.00 0.00 0.00 0.00 0.00 0.00 0.00 0.00 0.00 0.00 0.00 0.00 0.00 0.00 0.00 0.00 0.00 0.00 0.00 0.00 0.00 0.00 0.00 0.00 0.00 0.00 0.00 0.00 0.00 0.00 0.00 0.00 0.00 0.00 0.00 0.00 0.00 0.00
0.00 0.00 0.00 0.00 0.00 0.00 0.00 0.00 0.00 0.00 0.00 0.00 0.00 0.00 0.00 0.00 0.00 0.00 0.00 0.00 0.00 0.00 0.00 0.00 0.00 0.00 0.00 0.00 0.00 0.00 0.00 0.00 0.00 0.00 0.00 0.00 0.00 0.00 0.00 0.00 0.00 0.00 0.00 0.00 0.00 0.00 0.00 0.00 0.00
0.00 0.00 0.00 0.00 0.00 0.00 0.00 0.00 0.00 0.00 0.00 0.00 0.00 0.00 0.00 0.00 0.00 0.00 0.00 0.00 0.00 0.00 0.00 0.00 0.00 0.00 0.00 0.00 0.00 0.00 0.00 0.00 0.00 0.00 0.00 0.00 0.00 0.00 0.00 0.00 0.00 0.00 0.00 0.00 0.00 0.00 0.00 0.00 0.00
0.00 0.00 0.00 0.00 0.00 0.00 0.00 0.00 0.00 0.00 0.00 0.00 0.00 0.00 0.00 0.00 0.00 0.00 0.00 0.00 0.00 0.00 0.00 0.00 0.00 0.00 0.00 0.00 0.00 0.00 0.00 0.00 0.00 0.00 0.00 0.00 0.00 0.00 0.00 0.00 0.00 0.00 0.00 0.00 0.00 0.00 0.00 0.00 0.00
MSLP
1010.55 1010.79 1011.20 1011.29 1011.81 1011.04 1010.00 1009.53 1008.83 1007.87 1007.55 1007.47 1008.32 1008.94 1010.30 1011.44 1011.98 1013.47 1013.30 1013.57 1013.83 1014.29 1014.39 1014.56 1014.82 1014.99 1015.25 1015.45 1015.53 1015.67 1015.81 1015.92 1016.07 1016.20 1016.33 1016.47 1016.48 1016.58 1016.63 1016.72 1016.86 1017.01 1017.11 1017.23 1017.39 1017.47 1017.47 1017.56 1017.58
1010.55 1011.02 1011.23 1010.98 1011.15 1010.69 1009.85 1009.06 1008.22 1007.55 1007.70 1007.65 1008.84 1009.50 1010.56 1011.82 1012.34 1012.89 1013.52 1013.72 1013.80 1014.23 1014.54 1014.77 1014.99 1015.23 1015.50 1015.63 1015.79 1015.95 1016.05 1016.13 1016.24 1016.38 1016.52 1016.51 1016.55 1016.74 1016.89 1016.89 1016.99 1017.08 1017.23 1017.37 1017.55 1017.65 1017.72 1017.75 1017.84
1010.63 1010.49 1010.91 1010.48 1010.45 1010.21 1009.58 1008.76 1007.95 1007.52 1007.89 1007.83 1009.19 1010.16 1011.01 1011.83 1012.41 1013.10 1013.14 1013.59 1013.93 1014.44 1014.77 1014.96 1015.20 1015.48 1015.67 1015.78 1015.99 1016.18 1016.24 1016.37 1016.52 1016.60 1016.58 1016.63 1016.76 1016.91 1016.99 1017.00 1017.09 1017.25 1017.40 1017.53 1017.66 1017.77 1017.89 1018.04 1018.13
1010.37 1010.57 1010.43 1010.47 1010.05 1009.79 1009.08 1008.41 1007.84 1007.39 1008.09 1008.49 1009.41 1010.80 1011.56 1011.73 1012.27 1012.75 1013.38 1013.79 1014.27 1014.71 1014.93 1015.01 1015.38 1015.65 1015.81 1015.98 1016.20 1016.29 1016.49 1016.62 1016.64 1016.69 1016.77 1016.88 1017.00 1017.07 1017.07 1017.13 1017.26 1017.45 1017.58 1017.67 1017.76 1017.86 1018.01 1018.22 1018.13
1009.99 1010.05 1010.08 1010.10 1009.77 1009.35 1008.65 1008.28 1007.94 1008.04 1008.61 1009.20 1009.47 1011.05 1012.07 1012.60 1012.55 1013.14 1013.59 1014.03 1014.40 1014.84 1015.01 1015.26 1015.56 1015.83 1016.02 1016.17 1016.33 1016.49 1016.75 1016.83 1016.80 1016.89 1016.89 1017.07 1017.15 1017.21 1017.28 1017.32 1017.41 1017.55 1017.66 1017.81 1017.92 1018.01 1018.11 1018.28 1018.31
1009.97 1010.11 1009.94 1009.61 1009.02 1008.45 1007.84 1007.52 1007.93 1007.97 1008.57 1009.47 1010.26 1011.15 1012.68 1013.00 1013.10 1013.49 1013.87 1014.28 1014.43 1014.94 1015.19 1015.50 1015.78 1016.01 1016.19 1016.32 1016.52 1016.70 1016.89 1016.93 1017.03 1017.09 1017.17 1017.32 1017.36 1017.42 1017.44 1017.44 1017.50 1017.59 1017.72 1017.86 1017.99 1018.19 1018.36 1018.40 1018.55
1009.63 1009.85 1009.60 1009.15 1008.31 1007.61 1006.96 1006.79 1007.34 1007.84 1008.46 1009.04 1009.65 1011.18 1012.82 1013.23 1013.47 1013.62 1014.17 1014.59 1014.77 1015.01 1015.38 1015.68 1015.95 1016.09 1016.29 1016.45 1016.66 1016.87 1016.97 1017.00 1017.24 1017.28 1017.41 1017.51 1017.51 1017.57 1017.66 1017.76 1017.82 1017.85 1017.96 1018.05 1018.19 1018.40 1018.51 1018.63 1018.66
1009.39 1009.51 1009.37 1008.84 1008.03 1006.91 1006.52 1006.69 1006.84 1007.68 1008.31 1008.94 1009.55 1010.81 1012.11 1012.53 1013.40 1013.83 1014.46 1014.96 1015.23 1015.47 1015.66 1015.88 1016.06 1016.27 1016.45 1016.56 1016.69 1016.91 1016.99 1017.06 1017.23 1017.41 1017.59 1017.69 1017.69 1017.74 1017.87 1017.99 1018.05 1018.07 1018.08 1018.14 1018.36 1018.41 1018.57 1018.63 1018.69
1008.99 1009.44 1009.04 1008.03 1007.29 1006.49 1006.02 1006.53 1006.79 1007.45 1008.07 1008.51 1009.21 1009.95 1010.83 1012.16 1013.27 1014.05 1014.74 1015.30 1015.58 1015.85 1016.05 1016.14 1016.27 1016.49 1016.58 1016.68 1016.81 1016.97 1017.11 1017.17 1017.39 1017.63 1017.79 1017.88 1018.11 1018.21 1018.10 1018.17 1018.16 1018.15 1018.20 1018.34 1018.48 1018.41 1018.45 1018.62 1018.76
1009.16 1008.91 1007.83 1006.69 1006.03 1005.78 1005.61 1005.92 1006.69 1007.40 1008.05 1008.95 1009.49 1010.36 1011.53 1012.33 1013.16 1013.86 1014.53 1015.13 1015.61 1015.99 1016.23 1016.41 1016.38 1016.55 1016.65 1016.64 1016.95 1017.23 1017.34 1017.46 1017.70 1017.92 1018.03 1018.23 1018.41 1018.39 1018.24 1018.28 1018.15 1018.24 1018.31 1018.41 1018.49 1018.54 1018.53 1018.75 1019.04
1008.64 1008.03 1007.05 1006.28 1005.67 1005.47 1005.51 1005.90 1006.37 1007.27 1008.16 1008.51 1009.01 1010.15 1011.23 1012.24 1013.03 1013.64 1014.37 1014.91 1015.27 1015.77 1016.19 1016.39 1016.41 1016.56 1016.66 1016.78 1017.13 1017.43 1017.58 1017.66 1017.85 1018.05 1018.21 1018.38 1018.48 1018.51 1018.51 1018.65 1018.39 1018.43 1018.47 1018.93 1018.89 1019.03 1018.95 1019.01 1019.27
1008.19 1007.06 1006.73 1005.75 1005.37 1005.16 1005.19 1005.63 1006.13 1006.69 1006.98 1007.60 1008.65 1009.24 1010.26 1011.59 1012.44 1013.12 1013.83 1014.57 1015.21 1015.72 1016.01 1016.25 1016.37 1016.55 1016.69 1016.93 1017.25 1017.43 1017.59 1017.78 1017.99 1018.13 1018.29 1018.40 1018.67 1018.81 1018.70 1018.85 1018.63 1018.65 1018.69 1018.94 1019.09 1019.17 1019.27 1019.14 1019.26
1007.55 1006.54 1006.29 1005.57 1005.25 1004.95 1004.79 1005.17 1005.56 1006.79 1007.33 1008.21 1009.43 1010.28 1010.79 1011.46 1012.25 1013.10 1013.75 1014.45 1014.99 1015.51 1015.84 1016.07 1016.25 1016.53 1016.61 1017.01 1017.24 1017.44 1017.63 1017.74 1017.99 1018.23 1018.36 1018.42 1018.58 1018.70 1018.80 1018.88 1018.73 1018.87 1018.79 1019.03 1019.21 1019.19 1019.25 1019.31 1019.17
1006.43 1006.27 1005.89 1005.33 1004.69 1004.49 1004.75 1005.24 1005.51 1007.27 1007.76 1009.06 1009.32 1010.27 1011.03 1011.33 1011.60 1012.54 1013.48 1014.11 1014.65 1015.05 1015.49 1015.75 1016.11 1016.16 1016.53 1016.95 1017.16 1017.35 1017.53 1017.72 1017.93 1018.05 1018.16 1018.31 1018.58 1018.60 1018.72 1018.93 1018.93 1018.94 1018.84 1019.07 1019.18 1019.52 1019.35 1019.20 1019.24
1006.46 1006.33 1005.57 1004.87 1004.54 1004.65 1004.80 1005.87 1006.65 1007.35 1008.01 1009.11 1009.72 1010.28 1010.96 1011.37 1011.58 1011.78 1012.49 1013.37 1013.99 1014.55 1015.02 1015.41 1015.75 1015.92 1016.47 1016.82 1016.99 1017.28 1017.43 1017.57 1017.75 1017.80 1018.00 1018.23 1018.50 1018.52 1018.49 1018.80 1018.92 1018.81 1018.80 1019.10 1019.11 1019.59 1019.61 1019.40 1019.11
1006.41 1006.49 1006.15 1004.44 1003.95 1004.03 1004.49 1006.37 1007.37 1007.93 1008.52 1009.41 1010.10 1010.40 1010.85 1011.26 1011.39 1011.65 1012.11 1012.84 1013.63 1014.14 1014.70 1015.07 1015.40 1015.83 1016.19 1016.56 1016.80 1017.01 1017.13 1017.21 1017.44 1017.55 1017.79 1018.02 1018.29 1018.43 1018.45 1018.69 1018.91 1018.84 1019.04 1019.31 1019.34 1019.65 1019.77 1019.73 1019.76
1006.74 1006.43 1005.71 1004.87 1003.97 1004.28 1004.91 1006.21 1007.54 1008.11 1008.55 1009.21 1009.71 1010.11 1010.43 1011.04 1011.30 1011.49 1011.78 1012.21 1012.88 1013.56 1014.13 1014.72 1015.08 1015.51 1015.92 1016.16 1016.50 1016.78 1016.90 1016.89 1016.97 1017.34 1017.65 1017.93 1018.20 1018.15 1018.27 1018.49 1018.77 1018.84 1019.22 1019.34 1019.34 1019.50 1019.61 1019.71 1020.15
1006.71 1006.27 1005.29 1004.68 1004.22 1004.46 1005.06 1005.95 1007.05 1007.77 1008.15 1008.57 1009.29 1009.63 1009.84 1010.20 1010.38 1010.88 1011.39 1011.98 1012.34 1012.92 1013.62 1014.20 1014.73 1015.14 1015.68 1016.13 1016.45 1016.78 1016.99 1016.81 1016.85 1017.14 1017.55 1017.87 1018.13 1018.21 1018.38 1018.58 1018.75 1018.85 1019.27 1019.57 1019.55 1019.64 1019.64 1019.85 1020.00
1006.13 1005.73 1005.01 1004.04 1003.79 1004.00 1004.40 1005.29 1006.25 1007.11 1008.18 1008.59 1008.90 1009.23 1009.28 1009.43 1010.00 1010.57 1010.96 1011.54 1012.11 1012.50 1013.13 1013.71 1014.36 1014.77 1015.47 1016.12 1016.64 1016.99 1017.11 1017.11 1017.17 1017.17 1017.28 1017.81 1018.05 1018.25 1018.37 1018.46 1018.70 1018.94 1019.21 1019.44 1019.72 1019.85 1020.00 1020.08 1020.09
1006.12 1005.63 1004.80 1004.05 1003.23 1003.64 1004.38 1004.91 1005.77 1006.17 1006.23 1007.05 1007.94 1008.59 1008.51 1009.08 1009.62 1009.96 1010.33 1010.76 1011.47 1011.95 1012.43 1013.09 1013.65 1014.29 1014.88 1015.42 1015.95 1016.18 1016.38 1016.70 1016.85 1016.91 1017.22 1017.56 1017.90 1018.13 1018.35 1018.46 1018.85 1018.89 1019.29 1019.55 1019.78 1019.95 1020.34 1020.36 1020.38
1005.34 1005.10 1004.65 1004.41 1003.75 1003.73 1004.49 1005.48 1006.00 1006.41 1006.81 1007.18 1007.54 1007.60 1008.03 1007.91 1008.62 1009.11 1009.54 1009.95 1010.57 1011.39 1011.78 1012.37 1012.98 1013.66 1014.25 1014.88 1015.55 1016.09 1016.35 1016.59 1016.83 1017.13 1017.27 1017.43 1017.68 1017.90 1018.17 1018.31 1018.61 1018.78 1019.02 1019.37 1019.59 1019.75 1020.20 1020.47 1020.65
1004.25 1004.10 1004.22 1004.26 1004.51 1004.33 1004.53 1005.31 1005.32 1005.34 1005.53 1006.05 1006.03 1006.37 1006.80 1007.12 1007.67 1008.22 1008.67 1009.29 1009.61 1010.37 1011.23 1011.73 1012.34 1013.08 1013.77 1014.43 1015.04 1015.49 1015.91 1016.35 1016.54 1016.86 1017.13 1017.31 1017.43 1017.63 1017.81 1018.01 1018.37 1018.56 1018.76 1019.20 1019.35 1019.52 1019.98 1020.23 1020.63
1002.76 1003.59 1003.82 1004.18 1004.58 1004.79 1004.77 1004.94 1004.00 1004.11 1004.43 1004.58 1004.34 1004.68 1005.24 1005.79 1006.27 1006.83 1007.42 1007.95 1008.57 1009.61 1010.45 1011.11 1011.82 1012.50 1013.17 1013.95 1014.40 1014.91 1015.49 1015.72 1016.32 1016.71 1017.08 1017.36 1017.33 1017.34 1017.45 1017.70 1018.09 1018.45 1018.67 1019.01 1019.21 1019.46 1019.83 1019.97 1020.28
1003.05 1003.42 1003.85 1004.17 1004.63 1004.47 1004.30 1004.58 1003.11 1002.62 1002.25 1002.21 1003.04 1003.41 1003.93 1004.59 1005.16 1005.74 1006.21 1007.14 1007.81 1008.65 1009.52 1010.45 1011.23 1011.88 1012.56 1013.35 1013.93 1014.38 1014.88 1015.49 1016.25 1016.70 1017.10 1017.38 1017.36 1017.41 1017.28 1017.40 1017.83 1018.10 1018.44 1018.85 1018.95 1019.23 1019.58 1019.72 1019.97
1002.95 1003.78 1004.70 1005.01 1004.69 1003.67 1003.66 1003.68 1001.45 1000.47 999.89 1000.23 1001.18 1001.56 1002.36 1003.13 1003.93 1004.56 1005.31 1005.91 1006.67 1007.49 1008.33 1009.44 1010.48 1011.25 1011.89 1012.69 1013.38 1013.87 1014.23 1014.85 1015.41 1016.16 1016.64 1017.02 1017.25 1017.27 1017.23 1017.33 1017.64 1017.97 1018.04 1018.32 1018.59 1019.04 1019.27 1019.51 1019.89
1002.60 1003.28 1003.90 1004.37 1004.56 1003.90 1003.02 1001.95 999.59 999.11 998.72 998.79 999.49 1000.11 1000.95 1001.94 1002.43 1003.00 1003.47 1004.28 1005.23 1006.23 1007.26 1008.27 1009.33 1010.29 1011.15 1011.82 1012.51 1013.15 1013.76 1014.24 1014.67 1015.33 1015.92 1016.31 1016.57 1016.68 1016.53 1016.83 1017.04 1017.29 1017.64 1018.00 1018.20 1018.74 1018.99 1019.24 1019.49
1002.27 1002.29 1002.91 1003.93 1004.65 1004.00 1002.11 1000.85 999.23 998.64 998.41 998.53 998.91 999.72 1000.08 1000.66 1001.31 1001.62 1002.09 1002.79 1003.89 1004.96 1005.89 1006.96 1008.17 1009.24 1010.07 1010.85 1011.66 1012.43 1012.97 1013.51 1013.99 1014.54 1015.17 1015.65 1015.90 1016.12 1016.27 1016.29 1016.75 1016.85 1017.17 1017.53 1017.87 1018.37 1018.67 1018.96 1019.05
1001.27 1002.06 1002.86 1003.45 1003.86 1003.55 1001.71 1000.37 998.52 998.27 998.12 997.91 998.01 998.39 998.63 999.10 999.70 1000.79 1001.31 1001.67 1002.65 1003.57 1004.85 1006.09 1007.03 1008.02 1008.95 1009.93 1010.79 1011.45 1012.05 1012.67 1013.24 1013.87 1014.44 1014.91 1015.31 1015.65 1015.89 1016.12 1016.41 1016.69 1016.77 1016.93 1017.55 1017.96 1018.24 1018.57 1018.63
1002.54 1002.37 1002.53 1002.64 1003.00 1002.56 1001.64 999.53 997.71 997.21 997.08 997.33 997.17 997.16 997.21 997.61 998.30 998.99 999.75 1000.52 1001.48 1003.01 1004.24 1005.12 1006.29 1007.20 1008.28 1009.11 1009.86 1010.76 1011.39 1011.98 1012.64 1013.14 1013.63 1014.13 1014.61 1015.03 1015.47 1015.75 1016.03 1016.30 1016.37 1016.62 1017.06 1017.38 1017.60 1017.95 1018.07
1005.29 1004.04 1002.76 1002.50 1002.65 1002.08 1000.79 997.78 996.92 996.39 996.29 996.55 996.41 996.20 995.91 996.15 996.69 997.61 998.56 999.51 1000.69 1001.88 1003.15 1003.97 1005.17 1006.27 1007.18 1007.98 1008.87 1009.70 1010.45 1011.26 1011.96 1012.51 1012.95 1013.41 1013.80 1014.36 1014.85 1015.24 1015.57 1015.79 1015.90 1016.11 1016.38 1016.73 1016.85 1017.17 1017.47
Thickness
5782 5780 5778 5771 5747 5750 5751 5758 5771 5780 5784 5799 5795 5786 5772 5765 5763 5744 5769 5769 5768 5764 5762 5760 5758 5758 5756 5755 5755 5754 5754 5754 5753 5753 5753 5751 5751 5751 5750 5750 5748 5747 5746 5744 5742 5740 5740 5740 5740
5782 5778 5774 5765 5747 5735 5751 5766 5769 5782 5789 5801 5790 5784 5770 5757 5767 5767 5764 5770 5769 5765 5762 5761 5759 5758 5756 5755 5754 5753 5754 5755 5755 5754 5754 5754 5753 5752 5751 5751 5750 5748 5746 5744 5741 5739 5739 5738 5738
5781 5783 5764 5759 5752 5742 5749 5770 5781 5793 5795 5798 5780 5780 5772 5764 5770 5768 5774 5772 5769 5764 5762 5761 5759 5758 5757 5756 5755 5754 5755 5755 5755 5755 5756 5756 5754 5752 5752 5752 5751 5748 5746 5743 5740 5737 5736 5734 5735
5778 5774 5771 5752 5747 5754 5763 5780 5791 5797 5793 5792 5784 5766 5774 5781 5775 5776 5775 5772 5768 5764 5762 5761 5759 5758 5758 5757 5756 5756 5756 5756 5756 5758 5757 5756 5754 5754 5755 5754 5752 5749 5746 5743 5740 5737 5733 5733 5736
5782 5773 5757 5750 5754 5764 5778 5783 5791 5786 5783 5781 5787 5765 5762 5772 5779 5776 5774 5771 5766 5764 5763 5762 5760 5758 5757 5757 5757 5757 5756 5757 5759 5758 5758 5757 5756 5756 5756 5755 5754 5751 5748 5744 5740 5737 5734 5734 5736
5769 5767 5752 5749 5761 5776 5785 5795 5789 5790 5785 5778 5772 5769 5760 5772 5773 5773 5772 5768 5766 5764 5763 5761 5760 5758 5758 5759 5759 5758 5757 5758 5759 5759 5759 5757 5757 5757 5757 5758 5756 5754 5751 5747 5744 5740 5737 5736 5735
5768 5761 5757 5760 5767 5775 5791 5805 5788 5788 5785 5780 5785 5762 5760 5766 5771 5774 5769 5766 5765 5763 5762 5761 5760 5759 5760 5760 5759 5758 5760 5761 5759 5760 5760 5759 5759 5758 5758 5757 5756 5755 5752 5750 5747 5743 5741 5739 5739
5775 5769 5758 5764 5765 5775 5797 5800 5804 5792 5785 5793 5788 5761 5757 5772 5774 5773 5768 5763 5762 5762 5761 5761 5761 5760 5761 5762 5762 5761 5762 5763 5763 5762 5761 5760 5759 5759 5758 5758 5757 5757 5755 5752 5749 5747 5746 5743 5744
5790 5757 5749 5768 5772 5786 5804 5791 5804 5803 5789 5795 5792 5784 5785 5779 5775 5770 5764 5760 5760 5760 5760 5761 5761 5761 5762 5764 5764 5764 5764 5766 5765 5763 5761 5760 5759 5759 5759 5758 5758 5758 5756 5754 5751 5750 5751 5748 5746
5769 5754 5767 5793 5800 5793 5803 5802 5792 5788 5787 5781 5782 5784 5781 5778 5772 5768 5763 5759 5758 5758 5760 5761 5761 5762 5764 5765 5766 5765 5765 5767 5765 5763 5762 5761 5759 5760 5761 5759 5760 5758 5757 5755 5752 5753 5751 5750 5747
5773 5761 5783 5793 5804 5806 5799 5799 5803 5786 5773 5783 5780 5780 5780 5778 5773 5771 5766 5762 5761 5761 5761 5762 5763 5765 5765 5767 5767 5766 5766 5768 5766 5764 5764 5763 5761 5761 5760 5758 5762 5760 5760 5755 5754 5752 5753 5750 5747
5762 5784 5785 5794 5802 5802 5800 5805 5795 5795 5793 5800 5794 5794 5788 5780 5776 5774 5770 5766 5763 5761 5763 5764 5765 5767 5768 5768 5768 5768 5768 5768 5767 5766 5765 5765 5762 5761 5761 5759 5762 5760 5760 5757 5755 5753 5752 5751 5749
5768 5780 5787 5797 5800 5803 5811 5802 5801 5795 5800 5797 5790 5787 5782 5780 5778 5776 5773 5770 5767 5763 5764 5766 5768 5769 5771 5769 5769 5770 5769 5770 5769 5767 5766 5767 5765 5765 5762 5761 5763 5761 5761 5758 5756 5754 5752 5749 5749
5780 5780 5783 5792 5801 5805 5802 5800 5802 5792 5797 5786 5787 5783 5781 5779 5781 5778 5773 5769 5769 5770 5767 5770 5772 5772 5772 5771 5771 5772 5773 5772 5771 5770 5769 5770 5768 5768 5766 5764 5764 5763 5763 5759 5756 5751 5750 5751 5749
5774 5764 5779 5789 5799 5794 5804 5782 5782 5792 5792 5781 5780 5782 5781 5779 5782 5781 5779 5774 5774 5773 5773 5772 5775 5775 5774 5774 5773 5772 5774 5774 5774 5774 5773 5772 5771 5771 5770 5767 5764 5765 5764 5760 5758 5752 5750 5751 5753
5762 5758 5743 5784 5801 5802 5800 5762 5779 5789 5785 5775 5776 5777 5778 5777 5779 5783 5784 5780 5777 5776 5774 5777 5779 5779 5778 5777 5776 5775 5777 5778 5777 5777 5777 5776 5774 5773 5771 5768 5766 5766 5764 5760 5758 5755 5753 5753 5751
5744 5733 5750 5766 5800 5791 5792 5768 5778 5787 5783 5777 5777 5777 5777 5774 5777 5781 5785 5785 5783 5780 5779 5779 5781 5781 5781 5780 5779 5778 5780 5783 5781 5779 5779 5778 5776 5775 5774 5772 5769 5768 5764 5762 5761 5759 5760 5757 5751
5728 5739 5755 5758 5784 5787 5783 5773 5779 5783 5784 5781 5778 5779 5779 5777 5779 5783 5784 5785 5786 5786 5784 5783 5782 5784 5782 5782 5781 5779 5781 5783 5782 5783 5781 5780 5778 5776 5775 5773 5772 5770 5766 5764 5763 5763 5763 5759 5756
5753 5755 5756 5774 5789 5784 5785 5779 5780 5784 5779 5775 5777 5778 5778 5780 5781 5783 5785 5786 5784 5787 5787 5786 5784 5786 5784 5780 5778 5777 5778 5780 5782 5784 5784 5781 5779 5777 5777 5775 5773 5771 5769 5767 5764 5763 5760 5759 5758
5740 5740 5750 5769 5790 5781 5777 5779 5780 5784 5789 5785 5780 5779 5783 5781 5778 5782 5786 5789 5788 5787 5791 5790 5789 5788 5788 5787 5785 5785 5786 5786 5786 5787 5786 5783 5781 5778 5778 5777 5774 5774 5770 5768 5766 5764 5759 5759 5758
5734 5737 5747 5751 5773 5778 5767 5755 5766 5777 5781 5785 5784 5788 5787 5788 5784 5782 5785 5790 5792 5789 5793 5794 5793 5792 5793 5792 5789 5786 5787 5786 5786 5785 5786 5785 5783 5781 5778 5778 5776 5776 5773 5771 5769 5768 5763 5758 5758
5724 5758 5759 5757 5745 5734 5764 5720 5752 5777 5782 5782 5788 5792 5792 5792 5795 5791 5790 5791 5796 5796 5796 5796 5796 5796 5796 5795 5792 5789 5787 5784 5788 5787 5788 5786 5785 5784 5782 5781 5779 5778 5776 5773 5772 5772 5769 5766 5758
5754 5759 5757 5755 5740 5735 5746 5729 5756 5775 5774 5782 5795 5805 5804 5800 5801 5800 5799 5800 5802 5801 5798 5800 5800 5799 5799 5797 5796 5794 5790 5792 5789 5789 5787 5785 5786 5786 5786 5785 5782 5780 5778 5776 5774 5772 5771 5770 5766
5760 5748 5746 5746 5739 5712 5735 5738 5749 5768 5791 5801 5802 5809 5810 5808 5807 5808 5809 5805 5805 5806 5804 5802 5801 5801 5802 5799 5797 5796 5795 5791 5787 5787 5785 5784 5786 5788 5789 5787 5785 5783 5780 5778 5777 5775 5773 5772 5770
5735 5711 5684 5683 5691 5703 5739 5726 5779 5800 5820 5820 5813 5820 5822 5820 5815 5812 5810 5810 5810 5811 5811 5808 5805 5802 5805 5803 5799 5798 5798 5797 5794 5790 5788 5786 5786 5788 5790 5789 5788 5786 5784 5782 5780 5777 5776 5775 5772
5722 5716 5682 5667 5676 5714 5742 5714 5778 5820 5830 5836 5832 5829 5829 5825 5826 5823 5825 5822 5820 5818 5816 5814 5810 5807 5807 5807 5804 5802 5801 5800 5800 5796 5794 5793 5792 5794 5796 5795 5792 5790 5788 5785 5783 5781 5780 5779 5777
5714 5706 5734 5703 5702 5699 5729 5746 5793 5812 5814 5823 5825 5823 5824 5828 5829 5832 5836 5833 5829 5827 5825 5821 5817 5813 5811 5809 5808 5805 5805 5804 5803 5801 5799 5798 5798 5798 5799 5798 5795 5793 5792 5789 5787 5784 5783 5782 5782
5729 5729 5705 5687 5685 5680 5709 5732 5767 5790 5804 5817 5824 5830 5836 5840 5839 5833 5837 5840 5838 5837 5833 5827 5824 5819 5816 5812 5811 5810 5810 5809 5808 5805 5803 5802 5802 5801 5801 5799 5798 5796 5796 5794 5790 5788 5787 5784 5785
5709 5710 5711 5715 5698 5700 5689 5724 5782 5802 5815 5818 5832 5841 5846 5849 5849 5847 5845 5847 5845 5838 5834 5833 5826 5822 5818 5816 5814 5812 5812 5812 5811 5810 5809 5808 5807 5804 5802 5800 5800 5799 5799 5798 5794 5792 5791 5788 5788
5673 5687 5716 5700 5692 5692 5705 5746 5802 5811 5821 5825 5833 5846 5855 5859 5861 5858 5852 5851 5846 5843 5840 5839 5833 5827 5825 5822 5818 5817 5817 5816 5814 5813 5813 5813 5811 5808 5804 5802 5801 5800 5801 5801 5798 5796 5796 5794 5791